This is the latest recevied weather packets stored in our database for station/object EFTP. If no packets are shown the sender has not sent any weather packets the latest 10 day(s).
| Time | Temp. | Humidity | Pressure | Rain* | Wind** | Luminosity | Snow |
|---|---|---|---|---|---|---|---|
| 1777500412 | 3.33° C | 66% | 1023 hPa | - | - | - | - |
| 1777499212 | 3.89° C | 62% | 1023.1 hPa | - | - | - | - |
| 1777498012 | 3.89° C | 61% | 1023 hPa | - | - | - | - |
| 1777496812 | 3.89° C | 57% | 1023 hPa | - | - | - | - |
| 1777495612 | 4.44° C | 54% | 1023.1 hPa | - | - | - | - |
| 1777494412 | 4.44° C | 52% | 1023.1 hPa | - | - | - | - |
| 1777493212 | 4.44° C | 52% | 1023.3 hPa | - | - | - | - |
| 1777492012 | 4.44° C | 51% | 1023.4 hPa | - | - | - | - |
| 1777490811 | 5° C | 49% | 1023.5 hPa | - | - | - | - |
| 1777489612 | 5° C | 48% | 1023.4 hPa | - | - | - | - |
| 1777488411 | 5° C | 46% | 1023.2 hPa | - | - | - | - |
| 1777487211 | 5° C | 44% | 1023.3 hPa | - | - | - | - |
| 1777486011 | 5.56° C | 42% | 1023.3 hPa | - | - | - | - |
| 1777484811 | 5.56° C | 41% | 1023.3 hPa | - | - | - | - |
| 1777483611 | 6.11° C | 40% | 1023.3 hPa | - | - | - | - |
| 1777482411 | 6.67° C | 38% | 1023.2 hPa | - | - | - | - |
| 1777481211 | 6.67° C | 35% | 1023.4 hPa | - | - | - | - |
| 1777480011 | 7.22° C | 35% | 1023.4 hPa | - | - | - | - |
| 1777478810 | 7.78° C | 33% | 1023.4 hPa | - | - | - | - |
| 1777477610 | 7.78° C | 33% | 1023.4 hPa | - | - | - | - |
| 1777476411 | 7.78° C | 32% | 1023.5 hPa | - | - | - | - |
| 1777475210 | 7.78° C | 33% | 1023.5 hPa | - | - | - | - |
| 1777474011 | 8.33° C | 32% | 1023.3 hPa | - | - | - | - |
| 1777472811 | 8.89° C | 30% | 1023.3 hPa | - | - | - | - |
| 1777471610 | 8.89° C | 28% | 1023.5 hPa | - | - | - | - |
* Rain since midnight (hover to see other rain measurements)
** Current wind speed in m/s (hover to see current wind gust speed)